GPS BIII-4 (PRN 14)

Last updated on Sat Jul 05 2025 00:03:13 GMT+0000 (Coordinated Universal Time)

1 46826U 20078A 25185.30045777 .00000060 00000+0 00000+0 0 9991 2 46826 54.0554 224.8902 0060781 202.5070 183.6114 2.00558632 34536
UTC large
Height (km)
Speed (km/s)
/
Latitude / Longitude
Inclination (degrees)
Orbital Period (minutes)
Azimuth
Elevation
Range (km)
Doppler Factor

Next 0 passes for location: London (51.5072 / 0.1276)

Sorry there are no passes over London.